Overview Statistics Trail Chart Weather Telemetry Raw packets
 

This is the latest recevied weather packets stored in our database for station/object SV9FBP-13. If no packets are shown the sender has not sent any weather packets the latest 10 day(s).

<< 1 2 3 4 5 6 >>
Time Temp. Humidity Pressure Rain* Wind** Luminosity Snow
1788623367 30° C 40% 1011.6 hPa 0 mm - - -
1788617675 31.11° C 42% 1011.1 hPa 0 mm - - -
1788616786 31.67° C 41% 1010.9 hPa 0 mm - - -
1788615881 31.67° C 42% 1011 hPa 0 mm - - -
1788614079 31.67° C 42% 1010.8 hPa 0 mm - - -
1788613171 31.67° C 42% 1010.7 hPa 0 mm - - -
1788612265 31.67° C 41% 1010.7 hPa 0 mm - - -
1788611361 32.22° C 41% 1010.9 hPa 0 mm - - -
1788610457 31.67° C 41% 1010.9 hPa 0 mm - - -
1788609556 31.67° C 41% 1010.8 hPa 0 mm - - -
1788608653 31.67° C 41% 1011 hPa 0 mm - - -
1788607751 32.22° C 42% 1010.9 hPa 0 mm - - -
1788606848 31.67° C 42% 1010.9 hPa 0 mm - - -
1788605946 32.22° C 42% 1010.9 hPa 0 mm - - -
1788605045 31.67° C 43% 1010.6 hPa 0 mm - - -
1788604143 31.67° C 42% 1010.8 hPa 0 mm - - -
1788603240 31.11° C 42% 1010.9 hPa 0 mm - - -
1788602339 31.67° C 42% 1010.9 hPa 0 mm - - -
1788601435 31.11° C 42% 1011 hPa 0 mm - - -
1788600534 31.67° C 42% 1010.9 hPa 0 mm - - -
1788599632 31.11° C 42% 1011 hPa 0 mm - - -
1788598729 31.11° C 42% 1011 hPa 0 mm - - -
1788597827 30.56° C 43% 1011 hPa 0 mm - - -
1788596925 30.56° C 43% 1011.3 hPa 0 mm - - -
1788596023 30.56° C 41% 1011.1 hPa 0 mm - - -

* Rain latest hour (hover to see other rain measurements)
** Current wind speed in m/s (hover to see current wind gust speed)